Location: Unspecified
(0.0000°N, 0.0000°E)
Time: 23:40:03
(UTC+02:00)

NATO 3D Rocket - Visible Passes

Search period start: 29 April 2016 00:00
Search period end: 09 May 2016 00:00
Orbit: 670 x 2296 km, 21.5° (Epoch: 28 April)

Date Brightness Start Highest point End Pass type
(mag) Time Alt. Az. Time Alt. Az. Time Alt. Az.
29 Apr 6.9 20:25:51 10° NW 20:36:48 27° N 20:46:24 10° NE visible
29 Apr 6.1 22:33:51 10° NW 22:44:32 32° N 22:45:27 31° NNE visible
30 Apr 7.3 00:40:23 10° NW 00:41:00 12° NW 00:41:00 12° NW visible
30 Apr 6.5 21:34:28 10° NW 21:45:42 30° N 21:51:51 19° NE visible
30 Apr 6.5 23:41:21 10° NW 23:47:22 30° NW 23:47:22 30° NW visible
01 May 6.9 20:35:04 10° NW 20:46:33 29° N 20:56:33 10° ENE visible
01 May 5.9 22:42:12 10° NW 22:53:45 42° N 22:53:45 42° N visible
02 May 7.4 00:48:51 10° WNW 00:49:17 11° WNW 00:49:17 11° WNW visible
02 May 6.2 21:43:01 10° NW 21:55:16 38° NNE 22:00:07 28° NE visible
02 May 6.5 23:49:41 10° WNW 23:55:39 31° NW 23:55:39 31° NW visible
03 May 6.6 20:43:55 10° NW 20:56:09 34° N 21:06:30 11° ENE visible
03 May 5.7 22:50:30 10° NW 23:02:01 53° N 23:02:01 53° N visible
04 May 5.9 21:51:24 10° NW 22:04:36 48° NNE 22:08:23 39° ENE visible
04 May 6.6 23:58:11 10° WNW 00:03:55 31° WNW 00:03:55 31° WNW visible
05 May 6.4 20:52:29 10° NW 21:05:33 43° NNE 21:14:45 17° ENE visible
05 May 5.6 22:58:54 10° WNW 23:10:17 63° NNW 23:10:17 63° NNW visible
06 May 5.6 21:59:48 10° WNW 22:13:42 63° NNE 22:16:39 52° ENE visible
07 May 6.8 00:06:58 10° WNW 00:12:11 28° W 00:12:11 28° W visible
07 May 6.1 21:00:58 10° NW 21:14:40 54° NNE 21:23:01 24° E visible
07 May 5.7 23:07:30 10° WNW 23:18:33 63° WNW 23:18:33 63° WNW visible
08 May 6.4 20:02:28 10° NW 20:15:29 46° NNE 20:28:06 10° E visible
08 May 5.4 22:08:18 10° WNW 22:22:35 81° NNE 22:24:55 66° E visible
